Location: ?ernice
(48.8383°N, 14.3803°E)
Time: 19:37:55
(UTC+00:00)

Cosmos 968 Rocket - Pass Details

Date: 23 May 2024
Orbit: 738 x 769 km, 74.0° (Epoch: 21 June)

Event Time Altitude Azimuth Distance (km) Brightness Sun altitude
Exits shadow 02:02:16 12° 225° (SW) 2,095 5.1 -9.5°
Maximum altitude 02:06:47 49° 299° (WNW) 957 3.9 -8.9°
Drops below altitude 10° 02:11:46 10° 14° (NNE) 2,272 7.0 -8.4°
Sets 02:14:14 0° 20° (NNE) 3,205 8.1 -8.1°
